Location: Unspecified
(48.2082°N, 0.0000°E)
Time: 11:19:57
(UTC+00:00)

Transit 4A - Pass Details

Date: 26 June 2019
Orbit: 862 x 982 km, 66.8° (Epoch: 20 July)

Event Time Altitude Azimuth Distance (km) Brightness Sun altitude
Rises 09:38:52 0° 264° (W) 3,657 10.7 52.2°
Reaches altitude 10° 09:41:59 10° 278° (W) 2,725 10.1 52.7°
Maximum altitude 09:47:02 24° 331° (NNW) 1,923 9.5 53.4°
Drops below altitude 10° 09:52:07 10° 23° (NNE) 2,746 10.4 54.2°
Sets 09:55:17 0° 37° (NE) 3,692 11.1 54.6°
